Regional Weather Roundup
Issued by NWS Northern Indiana

Home | Current Version | Previous Version | Graphics & Text | Print | Product List | Glossary On
Versions: 1 2 3 4 5 6 7 8 9 10 11 12 13 14 15 16 17 18 19 20 21 22 23 24 25 26 27 28 29 30 31 32 33 34 35 36 37 38 39 40 41 42 43 44 45 46 47 48 49 50
000
ASUS43 KIWX 312010
RWRIWX

KIWX WEATHER ROUNDUP
NATIONAL WEATHER SERVICE NORTHERN INDIANA
400 PM EDT MON AUG 31 2015

NOTE: "FAIR" INDICATES FEW OR NO CLOUDS BELOW 12,000 FEET WITH NO
SIGNIFICANT WEATHER AND/OR OBSTRUCTIONS TO VISIBILITY.

* THESE STATIONS ARE NOT UNDER NWS QUALITY CONTROL. THEY ALSO MAY NOT
  REPORT WEATHER SUCH AS PRECIPITATION OR FOG.

INZ001>027-312100-
NORTHERN INDIANA

CITY           SKY/WX    TMP DP  RH WIND       PRES   REMARKS
GARY*          MOSUNNY   82  68  61 VRB5      30.05F
VALPARAISO     SUNNY     85  70  60 VRB7      30.06F
MICHIGAN CITY* MOSUNNY   81  68  65 N5        30.06F
LAPORTE*       SUNNY     85  70  60 SW7       30.07F
KNOX*          MOSUNNY   86  64  48 CALM      30.04F
SOUTH BEND     MOSUNNY   84  67  56 SW10      30.06F
ELKHART*       SUNNY     84  66  54 W7        30.06F
GOSHEN         MOSUNNY   83  68  60 W7        30.06F
MONTICELLO*    CLOUDY    84  71  64 S3        30.05F
LOGANSPORT*    PTSUNNY   84  61  45 SW9       30.06F
ROCHESTER*     MOSUNNY   90  68  48 SW7       30.06F
WARSAW*        SUNNY     86  68  54 W6        30.06F
ANGOLA*        SUNNY     86  70  58 W6        30.07F
FORT WAYNE     MOSUNNY   86  68  54 SW8       30.07F
HUNTINGTON*    PTSUNNY   85  62  46 W6        30.06F
PERU/GRISSOM   PTSUNNY   87  69  55 SW8       30.05F
MARION*        MOSUNNY   80  60  50 NW5       30.08F

$$
INZ028>050-312100-
CENTRAL INDIANA

CITY           SKY/WX    TMP DP  RH WIND       PRES   REMARKS
LAFAYETTE      MOSUNNY   87  66  49 SW9       30.05F
KOKOMO*        MOSUNNY   88  66  48 W8        30.06F
MUNCIE*        MOSUNNY   84  67  56 VRB7      30.07F
INDIANAPOLIS   MOSUNNY   86  65  49 SW13      30.07F

$$
MIZ043>046-050>051-056>058-064>065-071>073-077>080-312100-
SOUTHWEST LOWER MICHIGAN

CITY           SKY/WX    TMP DP  RH WIND       PRES   REMARKS
BATTLE CREEK   SUNNY     81  67  62 W6        30.07F
BENTON HARBOR  SUNNY     79  67  66 W8        30.06F
COLDWATER*     MOSUNNY   83  66  56 W3        30.07F
HILLSDALE*     MOSUNNY   84  66  54 W7        30.08F
HOLLAND        SUNNY     80  66  62 S7        30.06F
GRAND RAPIDS   MOSUNNY   81  67  62 VRB3      30.06F
KALAMAZOO      MOSUNNY   82  66  58 VRB7      30.06F
STURGIS*       SUNNY     82  70  65 SW6       30.06F
THREE RIVERS*  PTSUNNY   83  68  59 W6        30.07F

$$
OHZ001>008-015>018-024>025-312100-
NORTHWEST OHIO

CITY           SKY/WX    TMP DP  RH WIND       PRES   REMARKS
WAUSEON*       FAIR      84  70  61 W9        30.06F
DEFIANCE       MOSUNNY   86  67  52 SW8       30.06F
FINDLAY        MOSUNNY   86  67  52 SW8       30.06F
TOLEDO EXPRESS MOSUNNY   86  67  52 W10       30.05F
TOLEDO METCALF MOSUNNY   86  66  51 SW8       30.06F
LIMA           MOSUNNY   85  66  53 CALM      30.07F

$$
AND FOR LAKE MICHIGAN COASTAL AND OPEN LAKE BUOY OBSERVATIONS

STATION/POSITION TEMP    WIND        PRES    VSBY  WAVE
                 AIR SEA DIR/SP/G                  HT/PER
                 (F)     (DEG/KT/KT) (MB)    (MI)  (FT/S)
CALUMET HARBOR    73      50/  7/  8   N/A
MICHIGAN CITY     72      20/  7/  7   N/A
BURNS HARBOR      76      60/  8/  8 1018.3F
SAINT JOSEPH      79     210/  3/  3 1017.9F
SOUTH LAKE BUOY   70 72  170/  8/  8 1017.3F         0
4 MI NW BRIDGMAN  74 74   20/  4/  4   N/A           0
MICHIGAN CITY     74 73   50/  4/  6   N/A           0

$$
&&


USA.gov is the U.S. government's official web portal to all federal, state and local government web resources and services.